Terminal Aerodrome Forecast
Issued by NWS

Home | Current Version | Previous Version | Text Only | Print | Product List | Glossary On
Versions: 1 2 3 4 5 6 7 8 9 10 11 12 13 14 15 16 17 18 19 20 21 22 23 24 25 26
000
FTUS44 KMAF 211000 AAA
TAFCNM
TAF AMD
KCNM 211046Z 2111/2206 04005KT P6SM OVC035
      TEMPO 2111/2114 4SM TSRA BR OVC025CB
     FM211400 06007KT P6SM OVC020
      TEMPO 2114/2118 3SM TSRA BR BKN005 OVC025CB
     FM212100 07012KT P6SM BKN040
      TEMPO 2121/2124 2SM TSRA BR BKN005 OVC025CB=

USA.gov is the U.S. government's official web portal to all federal, state and local government web resources and services.